User: anonymous
Location: Hopkins Observatory
(42.6965°N, 73.1843°W)
Time: 07:42:00
(UTC-04:00)
Language:

RS-15 - Orbit

View from above orbital plane
View from above orbital plane
View from above satellite
View from above satellite

Ground track
Ground track

The orbit data is extracted from the following two-line orbital elements,

1 23439U 94085A   14112.17006149 -.00000039  00000-0  10000-3 0  6695
2 23439 064.8176 282.3184 0145707 093.5247 268.2351 11.27561367795688
Epoch (UTC): 22 April 2014 04:04:53
Eccentricity: 0.0145707
inclination: 64.8176°
perigee height: 1900 km
apogee height: 2145 km
right ascension of ascending node: 282.3184°
argument of perigee: 93.5247°
revolutions per day: 11.27561367
mean anomaly at epoch: 268.2351°
orbit number at epoch: 79568

The dashed part of the orbit path shows where the satellite is in the earth's shadow,  

DLR